Retour au catalogue

STARLINK-31184

ActifCommunicationsVLEO
NORAD 58793·PAYLOAD·🇺🇸 United States

Lancé Jan 15, 2024 depuis Cape Canaveral Space Force Station

Loading…

Prochains Passages (prochaines 24 heures)

TLE

FraisSource: CelesTrak SupGP

Époque: Sep 14, 2026, 21:34 UTC

1 58793C 24012G   26257.89909722 -.00024234  00000+0 -87773-3 0  2577
2 58793  43.0016 176.4683 0001281 264.1318 172.0941 15.27591918    13

Suivez STARLINK-31184 en temps réel avec AllMySat

Download on the App Store